User: anonymous   Login
Location: *
(51.8167°N, 12.5000°E)
Time: 07:52:23
(UTC+00:00)
Language:

H-2A R/B - Orbit

View from above orbital plane
View from above orbital plane
View from above satellite
View from above satellite

Ground track
Ground track

The orbit data is extracted from the following two-line orbital elements,

1 27601U 02056E   19324.62968762 +.00000043 +00000-0 +30251-4 0  9996
2 27601 098.2563 005.8790 0072210 181.4518 294.0238 14.31918669884668
Epoch (UTC): 20 November 2019 15:06:45
Eccentricity: 0.0072210
inclination: 98.2563°
perigee height: 733 km
apogee height: 837 km
right ascension of ascending node: 5.8790°
argument of perigee: 181.4518°
revolutions per day: 14.31918669
mean anomaly at epoch: 294.0238°
orbit number at epoch: 88466

The dashed part of the orbit path shows where the satellite is in the earth's shadow,  

DLR